Location: Tucson
(32.2217°N, 110.9265°W)
Time: 22:28:20
(UTC-07:00)

LightSail 2 - Visible Passes

Search period start: 08 July 2020 00:00
Search period end: 18 July 2020 00:00
Orbit: 691 x 722 km, 24.0° (Epoch: 08 July)

Date Brightness Start Highest point End Pass type
(mag) Time Alt. Az. Time Alt. Az. Time Alt. Az.
10 Jul 7.4 04:57:36 10° S 04:59:04 11° SSE 05:00:32 10° SE visible
12 Jul 7.0 04:40:48 10° SSW 04:43:53 16° SSE 04:46:59 10° ESE visible
13 Jul 7.2 03:43:32 12° SSE 03:43:56 12° SSE 03:46:00 10° SE visible
14 Jul 6.6 04:25:47 14° SSW 04:28:42 22° SSE 04:32:30 10° ESE visible
15 Jul 6.9 03:29:13 17° SSE 03:29:13 17° SSE 03:32:02 10° ESE visible
16 Jul 6.3 04:11:28 20° SSW 04:13:30 27° S 04:17:42 10° ESE visible
17 Jul 6.8 03:14:54 20° SE 03:14:54 20° SE 03:17:25 10° ESE visible
17 Jul 6.1 04:53:55 10° WSW 04:58:22 32° S 05:02:48 10° ESE visible
